GFSMW_250_spd_045.txt.gz
Wind_Speed
13 12 14 24 46 75 68 59 68 72 73 70 68 62 64 64 60 57 55 54 48 51 53 54 54 58 55 56 59 63 62 64 63 65 72 76 81 86 87 88 82 84 81
6 8 17 19 21 36 48 57 66 75 71 68 62 61 59 52 50 57 63 54 57 55 53 57 55 56 60 63 66 69 72 78 78 77 80 87 90 90 83 81 78 76 79
18 15 11 13 10 16 25 29 36 44 47 48 41 38 40 40 37 35 40 51 59 57 51 54 61 59 58 65 67 70 74 75 78 82 87 92 94 91 86 80 77 77 80
29 24 23 19 16 16 18 20 22 22 27 28 31 33 35 36 37 43 43 45 46 51 53 54 55 58 57 63 67 69 76 82 85 88 92 85 84 82 75 78 82 81 83
30 28 30 32 29 28 28 31 37 35 32 35 35 44 45 46 47 53 52 56 60 63 63 65 62 66 66 69 74 78 83 84 83 79 76 75 75 75 80 84 89 86 88
33 35 34 35 34 34 32 32 31 36 38 44 42 45 38 50 58 62 58 63 64 65 69 73 73 77 79 76 78 83 84 78 76 77 76 75 77 79 84 88 88 94 96
39 41 38 34 37 37 36 41 40 40 41 45 48 49 50 51 51 50 54 58 60 66 69 70 74 73 73 75 74 73 73 73 74 75 77 79 82 89 91 92 93 96 98
32 42 41 43 39 38 44 40 44 48 51 49 51 55 58 58 63 63 62 61 63 64 65 69 68 69 70 72 70 70 70 72 75 77 81 85 91 93 95 96 101 98 103
30 24 41 38 44 41 40 40 36 35 37 39 42 45 46 50 52 56 58 60 60 62 63 63 65 66 68 70 70 70 71 74 78 80 84 87 91 93 96 100 101 105 105
18 25 24 31 41 45 44 42 45 45 42 44 50 48 48 54 59 57 56 58 61 61 60 61 65 67 67 66 68 70 73 78 82 85 91 92 94 96 100 101 105 107 107
21 21 22 24 28 33 31 29 30 30 25 36 42 45 42 45 45 53 55 55 56 57 62 64 66 67 71 72 73 75 79 82 87 91 94 95 94 96 100 103 104 105 106
27 26 24 25 28 39 39 40 44 37 35 39 45 44 39 37 33 44 49 59 62 63 61 63 65 68 71 75 80 82 86 86 86 87 90 92 94 97 97 100 101 103 105
26 27 28 28 30 33 36 39 41 40 43 42 48 44 34 35 48 55 61 65 66 66 64 66 64 63 64 67 70 74 79 82 83 85 89 91 90 93 96 98 98 102 105
26 25 27 28 31 35 33 35 38 41 38 46 47 50 52 50 59 66 69 65 64 62 62 61 62 64 66 69 73 76 76 77 79 80 83 86 90 92 95 97 98 101 101
29 27 23 25 30 31 32 29 33 38 40 48 49 50 52 53 53 57 62 65 65 63 66 67 67 69 70 70 67 69 71 74 76 81 85 87 90 92 93 93 93 95 99
31 30 27 20 26 31 32 35 33 32 33 40 45 48 46 48 52 57 61 62 63 64 63 63 62 61 62 64 67 70 73 75 78 80 83 87 90 90 89 88 92 101 103
34 29 28 19 19 25 27 27 28 32 35 36 38 43 44 46 48 52 53 53 55 56 57 58 61 63 65 67 68 71 73 74 75 78 80 81 82 86 87 92 96 100 109
38 33 29 23 19 20 23 20 18 19 22 27 32 38 43 47 50 52 54 55 58 60 61 63 64 66 67 69 71 69 71 74 77 77 81 82 87 89 90 94 98 103 113
42 39 33 29 24 20 19 22 24 24 25 28 29 31 36 42 47 49 51 54 56 59 62 64 65 67 69 68 68 71 72 73 80 85 85 87 90 93 93 97 102 108 114
45 46 40 36 32 26 24 28 30 32 31 30 30 32 36 35 40 45 48 51 53 57 61 63 63 64 67 71 75 79 80 80 84 90 89 90 90 95 101 106 110 112 114
44 48 47 43 40 37 38 38 38 39 39 42 42 43 41 46 48 51 53 56 59 61 63 65 68 71 75 79 81 80 80 82 87 91 88 93 97 100 106 112 117 117 113
49 49 48 48 47 46 48 49 49 48 49 52 51 53 52 53 55 56 59 63 66 68 69 69 70 72 76 77 75 80 85 88 93 93 93 97 100 106 113 115 117 116 113
53 49 51 53 52 52 54 55 54 55 57 59 60 59 57 58 62 61 64 66 64 66 70 73 75 75 79 82 82 89 90 91 95 98 100 101 106 111 113 116 115 116 114
52 55 55 54 55 56 58 58 57 59 61 64 65 67 68 69 66 68 70 71 69 69 72 71 72 78 82 81 83 82 84 91 97 105 104 106 110 112 115 116 119 116 115
58 56 57 58 60 61 61 60 60 63 66 68 70 72 74 73 74 76 78 78 79 80 79 81 84 84 84 83 84 87 93 97 106 110 113 113 114 115 117 121 119 118 115
60 57 60 62 65 67 67 65 64 68 71 73 75 77 79 79 79 83 84 88 88 86 88 90 94 97 95 90 89 96 101 107 113 118 116 116 116 117 118 118 117 114 107

GFSMW_250_spd_048.txt.gz
Wind_Speed
7 8 12 16 26 35 51 57 57 59 73 76 75 70 67 61 64 66 70 69 68 66 65 63 62 63 58 64 64 62 63 62 62 64 67 71 73 78 74 73 79 82 85
12 11 13 13 24 29 41 57 58 54 65 73 70 72 68 68 69 68 64 63 68 69 70 69 66 66 61 60 61 59 60 62 68 72 74 76 76 76 79 82 83 80 78
18 13 13 13 13 23 40 60 59 55 57 58 60 63 70 75 76 74 67 63 54 57 57 57 57 59 64 61 61 61 63 68 71 69 67 70 74 79 81 81 81 80 80
20 17 14 13 11 13 29 40 54 60 59 58 58 66 70 76 52 48 56 61 54 49 49 46 46 48 52 55 55 54 61 64 68 73 74 77 84 84 81 83 82 80 79
26 24 22 20 16 14 17 25 27 29 39 46 41 36 37 39 42 42 41 42 42 44 43 46 51 58 61 63 66 67 71 71 69 72 78 79 80 80 78 78 77 79 81
33 35 34 30 28 27 25 24 27 32 31 32 34 35 39 41 42 43 44 47 51 53 56 62 67 65 64 66 68 72 72 75 80 81 81 78 81 80 78 79 79 83 87
31 35 33 39 35 34 33 33 34 34 37 41 39 41 43 43 44 46 47 48 47 52 57 59 62 64 65 67 70 73 76 77 77 76 74 76 77 77 78 81 84 88 90
19 31 38 35 34 38 40 36 36 41 41 40 42 45 46 47 49 52 55 54 56 55 57 60 62 63 63 67 68 69 70 71 74 75 75 75 77 80 84 86 89 93 98
19 21 21 34 44 43 41 44 46 40 43 43 42 42 43 45 50 53 49 49 53 55 58 61 61 63 65 65 65 67 70 73 73 76 76 77 81 87 89 92 94 100 95
18 19 26 27 27 38 41 45 45 48 40 43 41 37 39 39 36 37 39 43 49 50 52 56 58 62 61 61 65 70 73 76 77 78 83 86 89 92 94 93 94 95 93
14 18 19 27 30 31 37 40 46 47 44 41 49 46 40 31 29 34 39 44 48 52 59 63 61 57 58 64 70 74 73 74 78 82 84 85 85 88 90 91 91 88 89
23 11 17 18 21 29 34 38 38 41 46 40 34 34 38 35 37 36 34 46 52 52 52 58 61 66 71 71 79 74 74 70 72 76 78 82 84 86 87 84 86 88 89
38 30 23 16 17 23 30 35 38 40 38 42 42 40 40 48 47 43 43 43 56 62 65 69 75 74 77 82 77 77 75 74 77 80 85 83 79 79 81 83 82 85 87
37 39 34 19 18 21 24 31 38 42 42 43 37 39 44 49 49 47 51 57 63 66 71 79 79 82 85 79 78 78 80 82 81 78 74 76 78 78 77 79 83 88 90
33 33 40 34 18 14 18 24 31 38 41 43 44 47 51 55 53 56 56 63 68 71 76 79 82 79 77 75 74 74 74 73 73 74 76 77 78 76 79 81 87 88 93
34 30 35 43 36 30 22 20 21 31 34 36 39 43 49 51 53 57 63 66 67 66 66 66 67 67 67 68 71 72 72 73 75 75 76 77 78 81 84 87 92 96 99
35 34 31 38 37 35 33 30 25 20 21 32 35 34 38 43 50 56 60 58 58 62 66 68 70 71 72 74 73 71 69 70 73 75 78 80 83 85 90 92 94 96 101
39 37 38 34 36 40 35 34 27 25 21 23 28 31 38 43 42 42 40 42 45 47 50 54 57 60 62 63 65 66 68 71 75 79 81 84 85 85 85 90 94 100 103
36 41 41 34 35 42 39 36 32 32 25 23 26 27 30 33 36 39 40 40 42 46 47 50 52 54 56 60 64 69 72 75 75 76 79 82 85 85 91 94 92 89 94
40 42 48 45 39 40 45 42 38 35 38 36 33 35 36 39 37 40 39 44 46 47 48 52 56 60 59 61 64 64 65 65 67 73 77 83 85 86 90 88 87 90 94
43 46 48 46 40 43 50 48 45 46 44 41 43 45 46 46 48 49 50 54 54 55 57 58 59 62 65 68 71 70 72 72 75 79 83 86 85 86 87 87 91 97 100
43 48 49 45 45 46 52 49 49 53 48 47 50 51 52 54 56 58 58 60 61 64 64 64 66 69 73 76 78 76 77 79 83 86 88 89 88 89 90 92 97 101 106
51 49 51 51 48 48 49 53 54 54 53 51 53 56 55 57 60 63 65 67 67 69 71 72 72 75 80 83 85 88 89 87 88 90 91 90 93 93 95 98 102 107 111
57 54 51 51 50 53 54 56 57 56 58 59 59 62 65 67 68 69 71 72 75 75 78 79 80 82 86 88 91 95 92 89 92 95 93 94 97 97 101 104 108 114 118
62 57 56 54 53 55 54 56 59 61 64 65 65 67 69 71 73 75 78 78 80 81 83 84 85 87 90 93 96 99 96 96 97 97 96 98 99 101 105 109 115 120 122
58 59 61 57 54 53 56 59 63 68 70 72 72 74 74 74 76 79 82 83 87 88 89 89 90 94 96 97 102 103 101 101 102 102 101 102 103 108 113 117 121 124 124

GFSMW_250_spd_051.txt.gz
Wind_Speed
17 11 16 19 30 55 68 77 76 75 76 85 80 75 76 73 74 75 77 72 68 56 57 60 63 68 68 64 64 64 65 65 62 62 64 65 62 63 66 70 77 74 76
20 15 12 16 20 36 49 69 78 74 81 81 81 83 76 80 76 80 76 69 67 73 67 68 67 66 62 65 65 60 64 61 61 58 57 60 64 66 70 71 70 76 76
19 21 16 15 17 20 29 41 59 66 75 73 75 78 77 73 77 78 75 67 70 67 70 72 75 70 69 66 61 56 53 50 51 52 57 58 64 65 68 72 72 74 80
24 24 22 17 18 16 17 28 35 42 57 56 56 57 56 63 68 71 67 76 74 74 75 86 73 64 62 51 48 49 50 48 53 56 62 64 65 66 67 73 76 79 79
27 28 28 21 20 17 12 19 23 28 31 42 52 55 55 54 62 62 59 63 66 73 78 61 61 58 50 51 54 56 56 56 54 53 57 62 65 67 69 73 77 78 79
19 26 30 27 24 23 21 17 19 20 22 28 40 51 57 61 56 55 56 59 57 56 49 48 47 53 60 59 61 58 57 58 58 60 62 64 65 69 71 71 77 78 77
19 20 23 36 33 32 28 25 23 24 26 30 38 39 36 35 33 39 41 44 46 48 53 53 54 57 54 51 55 58 60 61 62 61 60 61 66 72 75 77 77 77 80
28 17 20 23 36 31 36 34 34 33 33 34 35 35 38 39 38 43 44 49 44 46 45 47 53 54 53 54 58 60 62 61 63 62 60 64 73 77 80 80 83 84 86
30 29 17 18 23 35 40 35 42 45 40 38 43 46 48 47 49 46 46 45 49 51 53 52 50 53 54 53 52 55 59 64 65 63 67 76 79 82 79 82 81 80 80
33 31 29 21 14 23 30 36 40 45 46 46 45 46 47 50 48 47 45 42 43 43 41 43 48 51 53 52 55 60 57 59 64 73 78 80 85 86 84 84 83 83 87
27 30 29 29 23 15 24 25 29 39 44 53 50 49 47 49 52 49 49 50 44 44 41 48 53 59 58 58 62 65 70 72 76 82 85 85 90 88 86 85 85 84 81
22 26 29 29 31 28 19 21 24 28 31 38 44 46 50 52 51 51 49 48 40 45 43 43 55 61 55 63 74 73 78 83 83 86 87 89 86 85 78 75 78 82 81
28 24 28 33 31 33 28 22 21 25 27 31 35 41 41 44 49 47 49 46 39 48 48 54 61 63 69 76 79 81 81 83 85 87 87 84 78 76 76 77 78 79 80
24 23 25 29 37 34 36 27 24 22 21 25 31 41 43 47 51 51 54 49 48 51 52 52 58 66 73 79 81 83 84 87 86 87 80 80 76 77 79 76 76 77 81
34 28 26 28 30 30 33 35 29 26 26 25 27 33 43 50 49 51 52 48 49 54 55 59 67 70 73 77 81 84 84 81 79 78 77 76 76 75 75 76 78 82 85
39 38 30 28 32 32 32 31 33 34 31 33 32 33 36 36 39 40 43 47 53 56 58 63 66 67 70 73 73 74 72 71 69 67 67 68 70 72 73 75 75 76 78
43 33 31 31 30 35 33 33 32 34 32 28 32 29 31 34 35 39 41 44 47 52 53 55 56 59 63 61 55 55 52 49 51 55 59 63 67 70 71 71 75 77 78
46 40 34 36 33 35 36 35 32 35 35 31 32 31 28 30 34 36 40 45 48 49 49 54 56 56 55 54 57 58 57 55 60 64 67 67 71 71 72 73 77 81 83
48 43 37 34 28 35 38 40 39 39 37 36 36 34 35 39 40 42 44 46 45 48 51 51 52 54 54 58 59 61 63 62 64 65 70 74 76 76 77 80 82 83 85
51 48 42 35 35 35 41 42 45 42 42 41 41 41 40 39 41 41 45 47 50 53 54 57 58 59 62 64 65 68 69 69 69 72 75 77 79 82 83 84 86 86 87
52 53 41 39 43 40 41 45 47 46 45 45 46 46 44 46 48 50 48 50 52 55 58 61 63 65 67 69 68 70 73 75 76 77 80 82 84 88 88 88 90 89 89
62 59 59 54 52 47 48 49 52 52 52 50 48 48 53 53 55 54 53 55 58 59 62 64 67 68 70 72 74 76 78 79 81 82 84 87 90 94 96 94 93 94 94
70 66 64 64 62 61 59 54 55 57 54 54 56 56 58 58 58 58 58 60 62 63 66 68 70 73 74 77 77 79 81 83 85 85 87 91 96 99 102 100 101 103 103
74 73 69 70 64 63 61 60 61 61 59 61 60 59 59 60 61 63 64 66 69 71 75 77 77 79 79 81 84 86 87 88 91 90 93 98 100 104 106 106 108 108 106
80 79 77 76 70 68 65 62 60 62 63 63 61 63 63 64 64 67 70 73 74 75 80 81 82 84 84 87 90 92 91 94 96 97 99 104 105 108 110 112 113 112 108
88 86 81 79 69 69 71 67 65 66 66 65 64 67 69 70 71 74 77 77 78 81 84 86 88 90 89 92 97 95 95 99 100 100 104 109 110 112 115 116 118 111 111

GFSMW_250_spd_054.txt.gz
Wind_Speed
11 15 12 14 34 62 69 69 75 72 71 70 64 60 63 64 59 59 59 58 59 59 60 62 62 63 63 64 57 61 65 67 64 63 60 57 58 59 54 52 54 59 61
18 18 15 16 14 17 40 63 76 83 80 73 69 69 65 61 66 65 64 64 66 71 69 70 71 69 65 62 68 68 71 68 66 64 59 50 49 47 48 55 56 60 62
21 23 20 14 15 16 17 19 47 84 84 76 73 70 73 69 62 64 60 68 70 73 72 73 70 71 69 66 69 73 71 65 63 65 49 44 47 48 52 52 61 63 66
19 17 22 21 18 12 9 15 22 39 62 82 72 71 75 73 65 69 64 62 60 53 61 58 58 66 71 73 73 69 66 58 54 48 49 51 55 51 56 58 59 63 62
25 19 18 24 24 22 17 12 15 22 27 50 60 61 80 80 74 71 65 57 55 53 61 60 59 68 62 62 63 57 54 52 55 54 56 59 57 57 54 57 60 59 65
29 26 18 16 24 23 24 19 13 15 19 30 38 36 57 59 59 62 58 61 57 56 53 58 62 60 54 54 55 57 54 53 52 54 53 53 51 52 55 57 61 64 74
33 30 26 21 16 23 28 25 28 23 21 22 24 26 32 43 47 56 56 60 61 58 52 52 53 54 53 54 57 61 62 62 65 68 63 60 60 58 57 56 63 72 79
31 30 30 25 21 17 21 31 30 33 31 31 30 29 30 36 41 47 55 56 62 58 50 50 51 54 55 58 62 54 60 69 71 72 75 59 54 62 66 70 74 79 82
28 30 27 24 24 22 21 21 31 35 36 38 37 40 36 37 35 36 40 41 42 41 45 50 53 56 58 62 66 61 64 62 63 60 55 63 67 72 73 79 81 79 82
27 27 22 23 23 23 20 21 25 29 39 41 44 43 43 42 42 46 47 48 48 49 52 52 53 52 54 57 64 65 66 60 57 60 63 67 73 77 82 81 78 85 86
28 27 29 23 22 26 26 23 19 23 29 33 43 46 47 48 48 48 48 51 54 55 53 56 57 60 63 69 71 64 59 61 61 62 67 73 80 83 78 81 84 85 83
31 29 24 28 22 23 26 25 22 21 20 28 30 38 44 46 49 52 51 52 51 53 57 56 57 57 59 61 58 59 65 69 69 68 72 78 76 82 83 80 76 74 70
34 28 17 24 29 22 25 25 26 23 19 21 24 28 32 33 37 43 48 49 50 51 49 51 52 55 49 52 56 60 67 72 68 74 73 81 78 81 67 61 56 53 58
38 35 31 21 24 31 27 27 27 26 25 24 22 23 29 33 34 39 42 43 45 46 47 50 52 50 51 55 57 60 66 64 71 75 78 76 56 57 53 56 59 59 63
40 42 30 27 28 29 29 29 31 32 30 27 26 26 24 26 32 39 44 48 50 54 53 49 50 50 53 54 59 62 67 72 73 74 62 57 60 62 64 64 64 64 66
41 43 38 34 37 33 28 28 31 35 34 35 34 31 30 27 24 29 38 41 45 47 47 45 47 50 55 61 60 63 64 63 57 60 64 62 65 65 68 70 69 69 72
45 40 40 35 38 42 36 29 29 33 36 38 38 37 36 36 32 31 33 33 37 40 41 43 44 46 51 52 55 55 55 56 59 62 64 66 66 68 71 72 72 71 73
49 43 46 44 41 44 38 36 30 34 39 40 41 39 37 36 35 35 35 39 41 44 41 43 47 49 53 53 55 57 56 58 60 64 67 68 71 71 73 75 74 75 75
57 54 51 50 52 51 45 39 39 38 35 42 45 45 43 39 39 38 38 40 43 43 47 50 50 49 47 50 55 59 63 66 69 69 68 69 69 72 75 76 77 79 80
64 59 58 61 61 59 53 52 48 46 45 41 44 48 50 52 50 47 46 46 48 50 51 50 50 50 52 56 59 61 63 66 68 71 72 72 73 75 80 81 82 82 84
64 67 64 62 63 62 59 60 56 57 52 48 50 49 52 56 57 56 56 55 56 57 57 56 56 57 58 60 63 67 70 71 72 73 76 78 80 80 83 84 86 88 90
71 71 71 71 69 67 67 65 64 60 61 58 54 55 58 58 62 63 62 62 61 62 61 62 63 63 64 66 69 71 73 76 77 78 81 82 85 85 87 88 91 92 94
81 81 79 77 73 69 71 67 66 66 67 68 59 62 61 67 66 66 67 68 69 66 65 66 67 69 71 71 73 74 78 80 82 84 85 88 91 92 93 94 96 96 97
78 80 85 86 82 81 78 73 74 74 72 75 76 72 69 72 73 70 70 72 72 71 71 74 74 76 77 79 80 80 82 84 88 89 91 93 94 95 97 98 99 100 100
82 84 84 86 88 88 85 85 84 80 80 81 82 83 79 78 78 78 74 74 72 73 77 80 81 82 84 87 88 86 86 89 91 94 95 96 97 100 100 102 102 104 106
88 86 84 86 87 89 88 88 88 87 87 86 82 83 84 81 81 80 80 82 82 81 82 85 87 88 92 93 93 91 93 95 97 98 98 100 102 102 105 106 107 110 113

GFSMW_250_spd_057.txt.gz
Wind_Speed
22 11 8 10 19 31 50 59 62 54 52 48 45 40 48 49 50 52 48 42 45 42 45 50 48 45 50 54 57 59 61 61 61 63 58 62 63 61 58 53 46 48 48
31 21 11 11 10 16 27 46 66 65 59 58 56 47 45 44 57 56 55 56 52 52 53 51 53 58 62 64 67 69 68 70 65 64 65 64 57 57 63 49 51 49 52
39 23 16 14 13 12 15 24 25 50 68 62 68 65 57 58 56 54 57 55 60 63 64 65 67 67 65 63 65 69 63 63 60 62 56 50 56 63 51 53 56 60 60
34 32 21 14 18 16 12 14 13 19 40 75 68 68 69 67 62 62 58 57 58 62 58 58 60 62 64 65 63 57 57 55 52 51 54 54 56 47 49 55 57 56 56
28 31 31 19 13 20 19 16 14 9 18 35 56 56 64 71 70 62 63 58 57 58 55 57 59 56 51 49 46 52 52 52 51 53 55 53 53 53 57 59 57 57 50
22 27 32 27 16 13 19 18 18 14 9 13 23 30 42 54 72 65 64 61 62 63 62 58 57 58 60 53 50 52 52 51 55 55 55 55 59 55 59 55 50 53 58
22 25 27 22 25 16 12 18 21 21 19 17 16 19 23 29 42 50 50 59 58 57 68 61 56 57 54 54 53 53 53 54 54 58 59 59 54 51 48 50 55 59 60
20 22 23 19 22 21 17 11 14 27 28 27 27 23 20 20 23 29 34 40 44 46 47 51 50 52 56 50 49 51 53 55 58 56 57 55 59 62 60 54 55 57 65
22 23 22 21 16 21 19 18 11 12 23 32 36 33 30 28 28 33 34 34 38 41 46 50 46 46 49 47 46 49 53 56 56 56 58 63 56 53 55 59 60 63 66
26 25 25 23 19 20 16 18 17 13 11 18 27 41 39 40 40 40 38 41 40 41 45 45 46 44 47 49 51 54 55 58 56 59 61 53 50 53 55 59 61 65 71
30 29 26 26 22 19 15 16 18 16 15 16 16 21 31 45 51 51 51 51 50 50 52 51 48 49 51 50 51 52 55 54 59 61 55 50 51 54 58 56 59 67 61
32 31 30 28 25 22 15 14 14 16 16 16 15 17 22 28 32 38 49 53 54 52 52 50 48 48 51 50 48 50 57 61 59 56 56 54 55 62 58 62 64 64 61
35 36 37 33 32 25 17 18 18 16 17 18 17 14 14 16 24 30 38 42 44 47 49 49 51 54 52 48 49 51 53 53 55 55 56 59 62 60 64 67 67 66 67
39 41 44 40 36 32 23 22 22 21 20 19 21 22 18 18 18 20 25 32 35 39 44 46 47 49 48 48 51 51 50 56 50 52 54 64 63 69 70 67 65 66 67
43 44 48 47 42 36 28 25 30 24 28 23 25 25 26 25 23 23 24 26 28 31 34 36 40 42 42 45 46 45 44 44 44 49 59 60 64 64 62 64 65 69 72
43 46 48 50 46 45 38 31 28 29 32 31 29 30 28 28 29 32 30 28 30 32 29 30 34 36 38 39 42 43 45 44 43 44 51 53 58 62 63 68 72 71 72
44 45 46 52 46 46 47 41 36 31 30 34 35 35 38 38 37 38 39 37 36 35 37 37 36 37 41 44 46 47 49 50 50 52 55 57 59 64 65 67 69 70 72
48 49 50 54 50 49 46 50 47 39 37 37 35 38 39 41 44 45 45 46 45 43 43 44 44 44 45 48 50 51 53 53 55 55 57 60 62 65 68 70 71 74 75
57 54 51 50 58 55 55 53 52 53 47 49 41 41 42 42 46 48 49 51 53 53 52 51 51 52 51 52 54 56 58 59 60 62 63 65 68 71 74 75 77 78 80
62 57 60 58 56 56 59 57 59 55 55 57 52 52 53 49 52 52 54 55 52 54 59 61 61 61 62 62 64 64 64 66 68 69 70 71 73 75 77 81 84 85 86
68 64 65 66 64 64 59 61 61 61 61 60 60 56 60 55 57 55 52 55 57 59 61 64 67 68 69 72 74 75 74 74 75 75 76 78 79 80 83 86 89 91 93
74 73 71 71 68 67 67 64 65 64 64 66 66 65 62 63 61 63 64 65 63 65 65 69 74 75 75 75 79 81 80 81 81 82 83 85 85 87 91 93 96 98 97
82 83 77 77 75 75 74 73 70 71 72 71 69 72 72 71 70 70 71 76 74 75 76 76 78 79 81 81 80 80 80 82 86 87 89 90 92 95 99 100 100 99 100
91 89 88 87 84 82 81 82 79 81 81 80 78 79 81 80 80 81 83 83 86 81 82 81 83 85 86 88 89 87 87 87 90 94 95 96 100 102 104 104 103 101 104
107 105 102 101 98 93 90 89 86 84 84 84 83 84 83 84 85 86 89 92 89 88 88 87 89 92 92 92 93 94 96 97 97 99 101 103 105 108 108 108 107 106 110
91 95 98 98 96 95 91 89 90 89 89 90 89 90 89 89 91 89 90 93 92 93 93 93 94 98 96 97 97 98 100 102 105 107 108 110 110 111 111 111 111 112 116